GW4510 Weather Reports


time (UTC)temp
C
wind
direction
speed
KPH
gust
KPH
rain 1hr
cm
rain 24hr
cm
rain mn
cm
humidity
%
barometer
mb
20260504185048 20 155 6.4 20.9 0.00 0.00 0.00 39 1007.2
20260504184559 20 100 4.8 16.1 0.00 0.00 0.00 36 1007.3
20260504184049 20 120 6.4 16.1 0.00 0.00 0.00 35 1007.3
20260504183548 20 98 1.6 14.5 0.00 0.00 0.00 35 1007.3
20260504183053 20 120 3.2 12.9 0.00 0.00 0.00 37 1007.3
20260504182549 20 98 6.4 17.7 0.00 0.00 0.00 35 1007.4
20260504182048 20 115 6.4 19.3 0.00 0.00 0.00 35 1007.6
20260504181554 20 96 6.4 19.3 0.00 0.00 0.00 36 1007.6
20260504181048 20 80 3.2 12.9 0.00 0.00 0.00 36 1007.6
20260504180549 20 114 4.8 12.9 0.00 0.00 0.00 34 1007.6
20260504180105 19 210 6.4 14.5 0.00 0.00 0.00 36 1007.6
20260504175548 19 292 6.4 22.5 0.00 0.00 0.00 35 1007.6
20260504175050 19 123 6.4 22.5 0.00 0.00 0.00 36 1007.7
20260504174549 18 122 6.4 17.7 0.00 0.00 0.00 36 1007.6
20260504174048 19 116 6.4 19.3 0.00 0.00 0.00 37 1007.8
20260504173548 18 110 6.4 29.0 0.00 0.00 0.00 38 1007.7
20260504173106 18 138 6.4 29.0 0.00 0.00 0.00 37 1007.8
20260504172548 18 100 8.0 29.0 0.00 0.00 0.00 37 1007.8
20260504172048 18 146 9.7 25.7 0.00 0.00 0.00 38 1007.8
20260504171559 18 176 8.0 25.7 0.00 0.00 0.00 35 1007.9
20260504171049 18 82 4.8 19.3 0.00 0.00 0.00 38 1007.9
20260504170548 18 114 3.2 19.3 0.00 0.00 0.00 38 1007.9
20260504151048 16 112 4.8 19.3 0.00 0.00 0.00 44 1009.3
20260504150548 15 252 6.4 19.3 0.00 0.00 0.00 45 1009.2
20260504141043 15 119 4.8 16.1 0.00 0.00 0.00 47 1009.6
20260504140549 15 152 4.8 22.5 0.00 0.00 0.00 49 1009.5
20260504130547 13 124 3.2 17.7 0.00 0.00 0.00 53 1010.0
20260504110545 3 0 0.0 1.6 0.00 0.00 0.00 86 1010.5
20260504110108 3 0 0.0 0.0 0.00 0.00 0.00 88 1010.5
20260504100547 1 0 0.0 3.2 0.00 0.00 0.00 88 1010.6
20260504081556 2 0 0.0 0.0 0.00 0.00 0.00 86 1010.2
20260504081047 2 0 0.0 0.0 0.00 0.00 0.00 86 1010.3
20260504080551 2 0 0.0 0.0 0.00 0.00 0.00 85 1010.3
20260504050548 0 0 0.0 0.0 0.00 0.00 0.00 89 1010.2
20260504045547 0 0 0.0 0.0 0.00 0.00 0.00 89 1010.3
20260504045048 0 0 0.0 0.0 0.00 0.00 0.00 89 1010.4
20260504044554 0 0 0.0 0.0 0.00 0.00 0.00 89 1010.4
20260504044048 0 0 0.0 0.0 0.00 0.00 0.00 90 1010.5
20260504043548 0 0 0.0 1.6 0.00 0.00 0.00 90 1010.7
20260504043058 0 0 0.0 1.6 0.00 0.00 0.00 90 1010.6
20260504042548 0 129 0.0 0.0 0.00 0.00 0.00 89 1010.5
20260504042047 0 0 0.0 1.6 0.00 0.00 0.00 89 1010.5
20260504041549 -1 0 0.0 1.6 0.00 0.00 0.00 89 1010.4
20260504041048 -1 129 0.0 1.6 0.00 0.00 0.00 89 1010.2
20260504040547 -1 0 0.0 1.6 0.00 0.00 0.00 88 1010.1
20260504040054 -1 0 0.0 1.6 0.00 0.00 0.00 88 1010.1
20260504035548 -1 0 0.0 1.6 0.00 0.00 0.00 88 1010.3
20260504035048 -1 0 0.0 1.6 0.00 0.00 0.00 88 1010.1
20260504034606 -1 0 0.0 1.6 0.00 0.00 0.00 87 1010.0
20260504034050 -1 0 0.0 1.6 0.00 0.00 0.00 87 1009.9
20260504033547 -1 0 0.0 1.6 0.00 0.00 0.00 87 1009.9
20260504033051 -1 0 0.0 1.6 0.00 0.00 0.00 87 1010.0
20260504032547 -1 0 0.0 0.0 0.00 0.00 0.00 87 1010.0
20260504032048 -1 0 0.0 0.0 0.00 0.00 0.00 86 1009.9
20260504031552 -1 0 0.0 0.0 0.00 0.00 0.00 86 1009.8
20260504031048 0 0 0.0 0.0 0.00 0.00 0.00 85 1009.8
20260504030552 0 0 0.0 0.0 0.00 0.00 0.00 85 1009.8
20260504030054 0 0 0.0 0.0 0.00 0.00 0.00 85 1009.8
20260504025548 0 0 0.0 1.6 0.00 0.00 0.00 85 1009.9
20260504025048 0 0 0.0 1.6 0.00 0.00 0.00 84 1009.9
20260504024555 0 0 0.0 1.6 0.00 0.00 0.00 84 1009.7
20260504024050 0 129 0.0 1.6 0.00 0.00 0.00 84 1009.9
20260504023548 0 0 0.0 1.6 0.00 0.00 0.00 84 1009.7
20260504023049 0 0 0.0 1.6 0.00 0.00 0.00 84 1009.7
20260504022548 0 0 0.0 1.6 0.00 0.00 0.00 83 1009.8
20260504022047 0 0 0.0 1.6 0.00 0.00 0.00 82 1009.9
20260504021553 0 0 0.0 1.6 0.00 0.00 0.00 82 1009.9
20260504021052 0 0 0.0 0.0 0.00 0.00 0.00 82 1009.7
20260504020552 0 0 0.0 0.0 0.00 0.00 0.00 82 1009.8
20260504020056 0 0 0.0 0.0 0.00 0.00 0.00 81 1009.7
20260504015548 0 0 0.0 0.0 0.00 0.00 0.00 81 1009.7
20260504015048 0 0 0.0 0.0 0.00 0.00 0.00 80 1009.6
20260504014548 1 0 0.0 0.0 0.00 0.00 0.00 80 1009.6
20260504014047 1 0 0.0 0.0 0.00 0.00 0.00 80 1009.6
20260504013548 1 0 0.0 0.0 0.00 0.00 0.00 79 1009.6
20260504013113 1 0 0.0 0.0 0.00 0.00 0.00 79 1009.6
20260504012548 1 0 0.0 0.0 0.00 0.00 0.00 78 1009.6
20260504012048 1 0 0.0 0.0 0.00 0.00 0.00 77 1009.5
20260504011553 1 0 0.0 0.0 0.00 0.00 0.00 76 1009.4
20260504011047 2 0 0.0 0.0 0.00 0.00 0.00 75 1009.4
20260504010548 2 0 0.0 0.0 0.00 0.00 0.00 75 1009.3
20260504010058 2 0 0.0 0.0 0.00 0.00 0.00 74 1009.3
20260504005547 2 0 0.0 0.0 0.00 0.00 0.00 74 1009.2
20260504005047 2 0 0.0 0.0 0.00 0.00 0.00 73 1009.1
20260504004551 2 0 0.0 0.0 0.00 0.00 0.00 72 1009.0
20260504004049 2 0 0.0 0.0 0.00 0.00 0.00 71 1009.0
20260504003548 3 0 0.0 0.0 0.00 0.00 0.00 71 1009.0
20260504003051 3 0 0.0 0.0 0.00 0.00 0.00 70 1008.8
20260504002547 3 0 0.0 0.0 0.00 0.00 0.00 69 1008.8
20260504002048 4 0 0.0 0.0 0.00 0.00 0.00 68 1008.7
20260504001550 5 0 0.0 0.0 0.00 0.00 0.00 65 1008.6
20260504001050 5 0 0.0 0.0 0.00 0.00 0.00 63 1008.5
20260504000548 5 0 0.0 0.0 0.00 0.00 0.00 61 1008.4
20260504000050 5 0 0.0 0.0 0.00 0.00 0.00 59 1008.5
20260503235549 6 0 0.0 0.0 0.00 0.00 0.00 57 1008.3
20260503235048 6 0 0.0 0.0 0.00 0.00 0.00 55 1008.3
20260503234553 6 0 0.0 3.2 0.00 0.00 0.00 54 1008.4
20260503234047 7 0 0.0 4.8 0.00 0.00 0.00 53 1008.5
20260503233549 7 0 0.0 4.8 0.00 0.00 0.00 52 1008.3
20260503233050 7 137 0.0 0.0 0.00 0.00 0.00 50 1008.1
20260503232547 7 0 0.0 4.8 0.00 0.00 0.00 50 1008.2
20260503232047 8 297 0.0 4.8 0.00 0.00 0.00 49 1008.1
20260503231552 8 122 0.0 6.4 0.00 0.00 0.00 48 1008.0
20260503231047 8 0 1.6 6.4 0.00 0.00 0.00 48 1007.9
20260503230550 8 0 1.6 9.7 0.00 0.00 0.00 48 1008.0
20260503230058 8 0 0.0 9.7 0.00 0.00 0.00 47 1007.8
20260503225547 8 275 3.2 6.4 0.00 0.00 0.00 46 1007.8
20260503225048 9 127 0.0 6.4 0.00 0.00 0.00 46 1007.7
20260503224601 9 123 1.6 8.0 0.00 0.00 0.00 46 1007.7
20260503224048 9 0 0.0 8.0 0.00 0.00 0.00 47 1007.7
20260503223758 9 126 3.2 9.7 0.00 0.00 0.00 46 1007.6
20260503223057 9 141 1.6 9.7 0.00 0.00 0.00 47 1007.7
20260503222546 9 141 3.2 9.7 0.00 0.00 0.00 47 1007.6
20260503222049 9 179 3.2 9.7 0.00 0.00 0.00 49 1007.5
20260503221604 10 130 0.0 8.0 0.00 0.00 0.00 49 1007.6
20260503221051 10 139 1.6 8.0 0.00 0.00 0.00 47 1007.4
20260503220547 10 131 0.0 8.0 0.00 0.00 0.00 48 1007.5
20260503220058 9 114 1.6 8.0 0.00 0.00 0.00 47 1007.4
20260503215548 9 0 0.0 8.0 0.00 0.00 0.00 49 1007.6
20260503215047 9 0 0.0 12.9 0.00 0.00 0.00 47 1007.6
20260503214554 9 214 1.6 12.9 0.00 0.00 0.00 47 1007.5
20260503214047 9 108 1.6 16.1 0.00 0.00 0.00 46 1007.5
20260503213550 9 123 3.2 16.1 0.00 0.00 0.00 47 1007.4
20260503213052 9 0 6.4 16.1 0.00 0.00 0.00 46 1007.4
20260503212547 9 86 3.2 11.3 0.00 0.00 0.00 48 1007.3
20260503212048 9 113 0.0 12.9 0.00 0.00 0.00 48 1007.1
20260503211552 8 103 3.2 12.9 0.00 0.00 0.00 48 1007.1
20260503211050 9 208 3.2 12.9 0.00 0.00 0.00 48 1007.1
20260503210548 9 219 0.0 11.3 0.00 0.00 0.00 49 1006.9
20260503210049 8 117 1.6 11.3 0.00 0.00 0.00 51 1007.0
20260503205549 8 170 1.6 11.3 0.00 0.00 0.00 49 1007.0
20260503205047 8 104 1.6 8.0 0.00 0.00 0.00 50 1006.9
20260503204620 8 136 0.0 9.7 0.00 0.00 0.00 50 1006.9
20260503204048 8 0 1.6 9.7 0.00 0.00 0.00 51 1006.9
20260503203548 8 98 1.6 16.1 0.00 0.00 0.00 49 1006.8
20260503203057 8 134 3.2 16.1 0.00 0.00 0.00 49 1006.8
20260503202549 9 123 4.8 16.1 0.00 0.00 0.00 49 1006.8
20260503202047 9 160 3.2 16.1 0.00 0.00 0.00 48 1006.7
20260503201555 9 121 4.8 16.1 0.00 0.00 0.00 47 1006.7
20260503201046 9 215 3.2 11.3 0.00 0.00 0.00 50 1006.5
20260503200548 10 120 3.2 14.5 0.00 0.00 0.00 47 1006.6
20260503200057 10 122 3.2 14.5 0.00 0.00 0.00 47 1006.5
20260503195547 10 124 4.8 14.5 0.00 0.03 0.00 46 1006.5
20260503195047 10 259 3.2 19.3 0.00 0.03 0.00 46 1006.6
20260503194600 10 105 1.6 19.3 0.00 0.03 0.00 51 1006.5
20260503194047 9 88 3.2 19.3 0.00 0.03 0.00 47 1006.7
20260503193547 9 136 6.4 19.3 0.00 0.03 0.00 48 1006.6
20260503193106 9 119 4.8 12.9 0.00 0.03 0.00 47 1006.6
20260503192548 9 229 4.8 12.9 0.00 0.03 0.00 50 1006.4
20260503192048 10 122 3.2 9.7 0.00 0.03 0.00 47 1006.5
20260503191609 10 138 1.6 8.0 0.00 0.03 0.00 49 1006.4
20260503191047 10 205 3.2 19.3 0.00 0.03 0.00 51 1006.4
20260503190547 10 132 4.8 19.3 0.00 0.03 0.00 50 1006.5
20260503190052 10 111 4.8 19.3 0.00 0.03 0.00 48 1006.5
20260503185548 10 110 4.8 16.1 0.00 0.18 0.00 51 1006.5